Rdshoep's Sports

我用 App 记录自己跑步 3 年了,下面列表展示的是 2024 的数据


2024 Journey
38 Runs
311.6 KM
5'33" Avg Pace
2 day Streak
157 Avg Heart Rate

2023 Journey
150 Runs
1,269.5 KM
5'48" Avg Pace
3 day Streak
153 Avg Heart Rate

2022 Journey
68 Runs
540.7 KM
6'48" Avg Pace
3 day Streak
149 Avg Heart Rate

Total Journey
256 Runs
2,121.8 KM
5'59" Avg Pace
3 day Streak
153 Avg Heart Rate

KMPaceBPMTimeDate
傍晚跑步8.15'16"16542min2024-04-12 20:51:05
傍晚跑步8.65'14"16145min2024-04-10 19:39:25
傍晚跑步8.15'18"17043min2024-04-08 21:30:50
傍晚跑步8.35'39"16446min2024-04-02 19:58:57
午后跑步8.310'25"10686min2024-03-31 15:39:41
傍晚跑步8.15'16"16742min2024-03-29 21:23:03
傍晚跑步8.15'17"16242min2024-03-27 20:36:43
傍晚跑步10.15'12"17052min2024-03-25 20:58:57
傍晚跑步8.25'16"17043min2024-03-23 20:06:28
傍晚跑步8.15'25"16643min2024-03-21 21:28:09
傍晚跑步7.05'38"16239min2024-03-19 20:57:25
夜晚跑步6.05'46"14334min2024-03-18 23:23:47
午后跑步10.15'29"16655min2024-03-16 18:54:07
夜晚跑步0.814'47"12411min2024-03-14 22:10:50
傍晚跑步8.15'20"17443min2024-03-14 21:27:11
傍晚跑步10.45'21"16855min2024-03-11 20:46:50
傍晚跑步8.35'12"16943min2024-03-08 20:42:13
傍晚跑步7.05'52"15641min2024-03-05 21:07:34
傍晚跑步8.35'18"17244min2024-03-03 20:26:36
傍晚跑步7.25'44"14941min2024-02-29 19:17:35
午后跑步7.05'40"15139min2024-02-26 18:40:22
午后跑步6.15'41"14734min2024-02-23 18:56:02
傍晚跑步9.75'43"15155min2024-02-06 19:05:50
夜晚跑步6.05'47"13434min2024-02-04 22:45:16
夜晚跑步8.85'44"13850min2024-02-01 22:23:45
傍晚跑步8.35'08"16442min2024-01-30 21:21:28
午后跑步10.15'08"16751min2024-01-28 18:06:21
傍晚跑步8.05'20"16242min2024-01-25 20:59:02
傍晚跑步8.35'07"16542min2024-01-23 21:08:05
午后跑步10.15'11"16352min2024-01-20 18:09:35
傍晚跑步9.15'34"13650min2024-01-18 21:16:20
午后跑步8.25'03"17841min2024-01-16 17:47:28
午间跑步8.05'25"15243min2024-01-13 12:24:51
午后跑步8.25'02"16741min2024-01-11 18:12:33
傍晚跑步10.35'21"16055min2024-01-09 20:12:40
午后跑步11.25'26"14560min2024-01-07 18:26:18
午后跑步8.24'55"16940min2024-01-04 18:56:34
傍晚跑步8.75'30"15147min2024-01-02 20:07:38